Weather History for KBVE - February, 2013

Change the Weather History Date:

Tuesday, February 5, 2013

  Actual Average Record
Temperature  
Mean Temperature 63 °F -  
Max Temperature 69 °F - - ()
Min Temperature 57 °F - - ()
Degree Days  
Heating Degree Days 2    
Growing Degree Days 13 (Base 50)    
Moisture  
Dew Point 61 °F    
Average Humidity 95    
Maximum Humidity 100    
Minimum Humidity 78    
Precipitation  
Precipitation 0.06 in - - ()
Sea Level Pressure  
Sea Level Pressure 29.98 in    
Wind  
Wind Speed 7 mph (West)    
Max Wind Speed 16 mph    
Max Gust Speed 33 mph    
Visibility 5 miles    
Events Fog , Rain    
T = Trace of Precipitation, MM = Missing Value Source: NWS Daily Summary

Daily Weather History Graph

Daily Weather History Graph

Search for Another Location

Airport or City:

Trip Planner

Search our weather history database for the weather conditions in past years. The results will help you decide how hot, cold, wet, or windy it might be!

Date:

Astronomy

Feb. 05, 2013 Rise Set
Actual Time 6:44 AM CST 5:39 PM CST
Civil Twilight 6:19 AM CST 6:04 PM CST
Nautical Twilight 5:51 AM CST 6:32 PM CST
Astronomical Twilight 5:23 AM CST 7:00 PM CST
Moon 2:17 AM CST (2/5) 1:05 PM CST (2/5)
Length of Visible Light 11h 44m
Length of Day
10h 55m
Waning Crescent, 26% of the Moon is Illuminated
Feb 5
Waning Crescent
Feb 10
New
Feb 17
First Quarter
Feb 25
Full
Mar 4
Last Quarter

Hourly Weather History & Observations

Time (CST) Temp. Dew Point Humidity Pressure Visibility Wind Dir Wind Speed Gust Speed Precip Events Conditions
12:20 AM 62.6 °F 60.8 °F 94% 29.93 in 2.5 mi SE 10.4 mph - 0.03 in Rain Rain
12:23 AM 62.6 °F 62.6 °F 100% 29.93 in 1.8 mi SSE 12.7 mph - 0.06 in Rain Heavy Rain
12:36 AM 62.6 °F 62.6 °F 100% 29.93 in 1.5 mi SSE 16.1 mph 33.4 mph 0.28 in Rain Rain
1:13 AM 62.6 °F 62.6 °F 100% 29.93 in 9.0 mi WSW 11.5 mph - 0.00 in Rain Light Rain
1:31 AM 60.8 °F 60.8 °F 100% 29.92 in 2.5 mi SSW 9.2 mph - 0.04 in Rain Rain
1:39 AM 60.8 °F 60.8 °F 100% 29.92 in 4.0 mi South 9.2 mph - 0.05 in Rain Light Rain
1:51 AM 62.1 °F 61.0 °F 96% 29.92 in 8.0 mi SSW 10.4 mph - 0.05 in   Overcast
2:51 AM 61.0 °F 59.0 °F 93% 29.91 in 10.0 mi SSW 6.9 mph - 0.01 in   Overcast
3:51 AM 61.0 °F 61.0 °F 100% 29.93 in 10.0 mi WSW 6.9 mph - N/A   Mostly Cloudy
4:27 AM 62.6 °F 60.8 °F 94% 29.93 in 10.0 mi WSW 8.1 mph - N/A   Overcast
4:37 AM 62.6 °F 60.8 °F 94% 29.94 in 10.0 mi WSW 5.8 mph - N/A   Overcast
4:46 AM 62.6 °F 60.8 °F 94% 29.94 in 9.0 mi WSW 4.6 mph - N/A   Overcast
4:51 AM 62.1 °F 62.1 °F 100% 29.94 in 9.0 mi WSW 4.6 mph - N/A   Overcast
5:35 AM 60.8 °F 60.8 °F 100% 29.94 in 5.0 mi WNW 3.5 mph - N/A   Overcast
5:51 AM 60.1 °F 60.1 °F 100% 29.95 in 2.5 mi Calm Calm - N/A   Overcast
6:03 AM 60.8 °F 60.8 °F 100% 29.95 in 1.5 mi Calm Calm - N/A   Overcast
6:22 AM 60.8 °F 60.8 °F 100% 29.95 in 0.8 mi Calm Calm - N/A   Overcast
6:36 AM 60.8 °F 60.8 °F 100% 29.96 in 1.5 mi Calm Calm - N/A   Overcast
6:51 AM 59.0 °F 59.0 °F 100% 29.96 in 0.2 mi WNW 4.6 mph - N/A Fog Fog
7:12 AM 59.0 °F 59.0 °F 100% 29.97 in 0.5 mi NW 3.5 mph - N/A Fog Fog
7:19 AM 57.2 °F 57.2 °F 100% 29.97 in 0.2 mi Calm Calm - N/A Fog Fog
7:40 AM 57.2 °F 57.2 °F 100% 29.98 in 0.2 mi Calm Calm - N/A Fog Fog
7:51 AM 57.9 °F 57.9 °F 100% 29.99 in 0.2 mi Calm Calm - N/A Fog Fog
8:00 AM 57.2 °F 57.2 °F 100% 29.99 in 0.2 mi Calm Calm - N/A Fog Fog
8:28 AM 59.0 °F 59.0 °F 100% 30.00 in 0.2 mi NW 3.5 mph - N/A Fog Fog
8:51 AM 60.1 °F 60.1 °F 100% 30.01 in 0.2 mi SSW 3.5 mph - N/A Fog Fog
9:24 AM 62.6 °F 60.8 °F 94% 30.01 in 1.0 mi Calm Calm - N/A   Mist
9:28 AM 62.6 °F 62.6 °F 100% 30.01 in 3.0 mi WNW 3.5 mph - N/A   Mostly Cloudy
9:39 AM 62.6 °F 62.6 °F 100% 30.02 in 10.0 mi NW 5.8 mph - N/A   Scattered Clouds
9:49 AM 60.8 °F 60.8 °F 100% 30.02 in 1.8 mi NNW 6.9 mph - N/A   Scattered Clouds
9:51 AM 61.0 °F 60.1 °F 97% 30.02 in 1.2 mi NNW 6.9 mph - N/A   Scattered Clouds
9:54 AM 60.8 °F 60.8 °F 100% 30.02 in 0.8 mi NW 5.8 mph - N/A   Mist
10:06 AM 60.8 °F 60.8 °F 100% 30.02 in 2.0 mi NW 6.9 mph - N/A   Mostly Cloudy
10:26 AM 62.6 °F 60.8 °F 94% 30.02 in 8.0 mi NNW 4.6 mph - N/A   Mostly Cloudy
10:42 AM 64.4 °F 60.8 °F 88% 30.01 in 10.0 mi Calm Calm - N/A   Partly Cloudy
10:51 AM 66.0 °F 62.1 °F 87% 30.01 in 10.0 mi Variable 5.8 mph - N/A   Partly Cloudy
11:00 AM 62.6 °F 60.8 °F 94% 30.01 in 1.8 mi Calm Calm - N/A   Scattered Clouds
11:11 AM 62.6 °F 60.8 °F 94% 30.01 in 3.0 mi Variable 4.6 mph - N/A   Scattered Clouds
11:51 AM 63.0 °F 60.1 °F 90% 30.02 in 10.0 mi NW 3.5 mph - N/A   Mostly Cloudy
12:12 PM 66.2 °F 62.6 °F 88% 30.01 in 10.0 mi West 5.8 mph - N/A   Mostly Cloudy
12:51 PM 66.9 °F 63.0 °F 87% 30.00 in 10.0 mi WNW 4.6 mph - N/A   Overcast
1:29 PM 64.4 °F 60.8 °F 88% 29.98 in 10.0 mi Variable 3.5 mph - N/A   Mostly Cloudy
1:47 PM 69.8 °F 62.6 °F 78% 29.99 in 10.0 mi WSW 9.2 mph - N/A   Mostly Cloudy
1:51 PM 68.0 °F 63.0 °F 84% 29.99 in 10.0 mi WSW 6.9 mph - N/A   Mostly Cloudy
1:59 PM 66.2 °F 62.6 °F 88% 29.99 in 10.0 mi West 5.8 mph - N/A   Overcast
2:51 PM 66.0 °F 61.0 °F 84% 29.98 in 10.0 mi SW 3.5 mph - N/A   Overcast
3:46 PM 66.2 °F 60.8 °F 83% 29.98 in 10.0 mi North 4.6 mph - N/A   Overcast
3:51 PM 66.0 °F 61.0 °F 84% 29.98 in 10.0 mi NNE 5.8 mph - N/A   Mostly Cloudy
4:07 PM 66.2 °F 60.8 °F 83% 29.98 in 10.0 mi North 4.6 mph - N/A   Scattered Clouds
4:51 PM 63.0 °F 60.1 °F 90% 29.98 in 6.0 mi ENE 3.5 mph - N/A   Scattered Clouds
5:51 PM 60.1 °F 59.0 °F 96% 29.98 in 3.0 mi Calm Calm - N/A   Clear
6:51 PM - - N/A% 30.01 in - North - - N/A   Unknown
7:51 PM - - N/A% 30.03 in - North - - N/A   Unknown
8:51 PM - - N/A% 30.05 in - North - - N/A   Unknown
9:51 PM - - N/A% 30.05 in - North - - N/A   Unknown
10:51 PM - - N/A% 30.06 in - North - - N/A   Unknown
11:51 PM - - N/A% 30.05 in - North - - N/A   Unknown